Regional Weather Roundup
Issued by NWS Kansas City/Pleasant Hill, MO

Home | Current Version | Previous Version | Text Only | Print | Product List | Glossary On
Versions: 1 2 3 4 5 6 7 8 9 10 11 12 13 14 15 16 17 18 19 20 21 22 23 24 25 26 27 28 29 30 31 32 33 34 35 36 37 38 39 40 41 42 43 44 45 46 47 48 49 50
000
ASUS43 KEAX 281810
RWREAX

WEATHER ROUNDUP FOR EASTERN KANSAS AND NORTHWEST MISSOURI
NATIONAL WEATHER SERVICE KANSAS CITY/PLEASANT HILL MO
100 PM CDT TUE MAR 28 2017

KSZ040-057-103>105-MOZ028-029-037-043-281900-
...KANSAS CITY METROPOLITAN AREA...

CITY           SKY/WX    TMP DP  RH WIND       PRES   REMARKS
K.C. INTL      CLOUDY    51  49  92 E8        30.07F
6HR MIN TEMP:  48; 6HR MAX TEMP:  52; 6HR PCP: TRACE;

K.C. DOWNTOWN  CLOUDY    53  49  86 NE10      30.06F
6HR MIN TEMP:  49; 6HR MAX TEMP:  53;

LEES SUMMIT    CLOUDY    51  49  92 NE8       30.07F
6HR MIN TEMP:  48; 6HR MAX TEMP:  51;

OLATHE - IXD   CLOUDY    53  48  83 NE7       30.06F
6HR MIN TEMP:  48; 6HR MAX TEMP:  54;

OLATHE - OJC   CLOUDY    52  50  93 E7        30.05F
6HR MIN TEMP:  47; 6HR MAX TEMP:  52;

LAWRENCE       CLOUDY    54  50  86 E12       30.06F

$$

MOZ001>008-011>017-020>025-030>033-038>040-044>046-053-054-281900-
...NORTHERN AND CENTRAL MISSOURI...

CITY           SKY/WX    TMP DP  RH WIND       PRES   REMARKS
ST. JOSEPH     CLOUDY    51  48  89 NE9       30.09F
6HR MIN TEMP:  47; 6HR MAX TEMP:  52;

MOSBY            N/A     52  48  87 E6        30.08F
WARRENSBURG    CLOUDY    52  50  93 NE8       30.07F FOG
WHITEMAN AFB   CLOUDY    53  53 100 E8        30.06F FOG
6HR MIN TEMP:  49; 6HR MAX TEMP:  54;

CLINTON        CLOUDY    54  54 100 E7        30.07F FOG
SEDALIA        CLOUDY    55  51  86 E7        30.09F
6HR MIN TEMP:  50; 6HR MAX TEMP:  55;

WARSAW         NOT AVBL
CHILLICOTHE      N/A     51  49  92 NE5       30.12F
6HR MIN TEMP:  48; 6HR MAX TEMP:  51;

KIRKSVILLE     CLOUDY    54  49  83 NE6       30.11F
6HR MIN TEMP:  47; 6HR MAX TEMP:  54;


$$

MOZ041-047>049-056>058-063>065-088>090-097-281900-
...EASTERN AND SOUTHERN MISSOURI...

CITY           SKY/WX    TMP DP  RH WIND       PRES   REMARKS
ST. LOUIS INTL CLOUDY    57  48  72 CALM      30.10S
6HR MIN TEMP:  53; 6HR MAX TEMP:  57; 6HR PCP: TRACE;

SPIRIT OF STL  CLOUDY    56  49  77 SW3       30.10R
COLUMBIA       CLOUDY    54  50  86 SE6       30.09F
JEFFERSON CITY CLOUDY    57  49  74 SE6       30.09F
ROLLA          CLOUDY    55  49  80 E7        30.08S
OSAGE BEACH    CLOUDY    58  51  78 E8        30.08F
SPRINGFIELD    CLOUDY    58  50  75 E9        30.03F
BRANSON        PTSUNNY   61  50  67 S7        30.05F
JOPLIN         CLOUDY    56  50  80 SE12      30.02F
WEST PLAINS    CLOUDY    61  51  70 E6        30.06F

$$

IAZ060-094-KSZ022-034>040-054-083-096-NEZ052-066-093-281900-
...KANSAS...SOUTHEAST NEBRASKA AND IOWA...

CITY           SKY/WX    TMP DP  RH WIND       PRES   REMARKS
TOPEKA         CLOUDY    54  48  80 E7        30.05F
6HR MIN TEMP:  44; 6HR MAX TEMP:  54;

MANHATTAN      CLOUDY    55  43  63 E12       30.01F
EMPORIA        CLOUDY    52  47  83 E14       30.01F
CHANUTE        CLOUDY    55  47  74 E12       30.01F
WICHITA        CLOUDY    53  46  77 E15       29.96F
OMAHA          CLOUDY    49  41  74 E9        30.12F
LINCOLN        CLOUDY    50  40  68 E12       30.10F
FALLS CITY     CLOUDY    51  43  74 E10       30.08F
LAMONI         CLOUDY    52  43  71 E5        30.11S
DES MOINES     CLOUDY    51  42  71 E3        30.13F

$$




USA.gov is the U.S. government's official web portal to all federal, state and local government web resources and services.